QPF
0.01 0.02 0.02 0.02 0.02 0.02 0.02 0.02 0.03 0.03 0.02 0.01 0.01 0.01 0.02 0.03 0.04 0.04 0.04 0.04 0.04 0.05 0.06 0.06 0.06 0.07 0.07 0.07 0.07 0.07 0.07 0.07 0.08 0.09 0.11 0.13 0.15 0.17
0.01 0.01 0.01 0.01 0.01 0.01 0.01 0.02 0.02 0.03 0.04 0.02 0.01 0.02 0.02 0.02 0.03 0.02 0.03 0.04 0.05 0.06 0.08 0.11 0.12 0.12 0.10 0.08 0.06 0.06 0.05 0.05 0.04 0.05 0.07 0.10 0.13 0.16
0.02 0.01 0.01 0.01 0.01 0.01 0.01 0.01 0.01 0.02 0.02 0.03 0.02 0.02 0.03 0.03 0.02 0.02 0.02 0.03 0.05 0.08 0.11 0.13 0.13 0.11 0.09 0.07 0.06 0.05 0.04 0.03 0.04 0.06 0.09 0.12 0.13 0.14
0.03 0.02 0.01 0.01 0.01 0.01 0.01 0.01 0.01 0.01 0.01 0.02 0.02 0.03 0.03 0.04 0.03 0.03 0.03 0.04 0.05 0.07 0.07 0.08 0.08 0.07 0.06 0.05 0.04 0.04 0.04 0.03 0.03 0.04 0.07 0.09 0.12 0.14
0.01 0.01 0.00 0.00 0.01 0.01 0.01 0.01 0.01 0.01 0.02 0.02 0.02 0.04 0.06 0.06 0.05 0.04 0.03 0.04 0.04 0.05 0.06 0.06 0.06 0.04 0.03 0.03 0.03 0.03 0.04 0.04 0.03 0.03 0.05 0.07 0.09 0.10
0.00 0.00 0.00 0.00 0.00 0.00 0.01 0.01 0.01 0.01 0.02 0.02 0.03 0.05 0.08 0.10 0.08 0.06 0.05 0.04 0.03 0.03 0.04 0.04 0.04 0.04 0.04 0.03 0.03 0.03 0.04 0.05 0.05 0.04 0.04 0.04 0.05 0.06
0.00 0.00 0.01 0.01 0.01 0.01 0.01 0.01 0.01 0.01 0.02 0.02 0.02 0.03 0.05 0.09 0.10 0.08 0.05 0.04 0.03 0.03 0.02 0.03 0.03 0.04 0.04 0.04 0.04 0.03 0.02 0.03 0.03 0.03 0.03 0.03 0.03 0.03
0.00 0.00 0.01 0.01 0.02 0.02 0.02 0.03 0.03 0.02 0.02 0.02 0.02 0.02 0.03 0.05 0.06 0.07 0.06 0.04 0.03 0.02 0.01 0.02 0.02 0.03 0.03 0.04 0.03 0.02 0.01 0.01 0.01 0.01 0.01 0.01 0.01 0.01
0.00 0.00 0.00 0.01 0.01 0.02 0.03 0.04 0.05 0.04 0.04 0.03 0.03 0.02 0.03 0.04 0.04 0.05 0.05 0.04 0.02 0.01 0.01 0.01 0.01 0.01 0.02 0.03 0.03 0.02 0.01 0.01 0.00 0.00 0.00 0.01 0.01 0.01
0.00 0.00 0.00 0.01 0.01 0.02 0.02 0.03 0.04 0.04 0.04 0.03 0.04 0.05 0.05 0.06 0.05 0.05 0.04 0.03 0.02 0.02 0.01 0.01 0.01 0.01 0.01 0.01 0.02 0.01 0.01 0.01 0.01 0.00 0.00 0.00 0.00 0.00
0.01 0.01 0.01 0.01 0.01 0.02 0.02 0.03 0.03 0.03 0.04 0.05 0.07 0.09 0.11 0.10 0.07 0.04 0.03 0.03 0.02 0.02 0.01 0.01 0.01 0.01 0.01 0.00 0.01 0.00 0.01 0.01 0.01 0.00 0.00 0.00 0.00 0.00
0.01 0.02 0.02 0.01 0.01 0.02 0.02 0.02 0.03 0.03 0.03 0.04 0.05 0.07 0.07 0.05 0.05 0.04 0.04 0.03 0.02 0.01 0.01 0.01 0.01 0.01 0.01 0.01 0.00 0.00 0.00 0.00 0.00 0.00 0.00 0.00 0.00 0.00
0.01 0.01 0.01 0.02 0.02 0.02 0.02 0.03 0.04 0.03 0.03 0.03 0.04 0.04 0.04 0.03 0.03 0.05 0.05 0.03 0.02 0.01 0.01 0.00 0.01 0.01 0.00 0.00 0.00 0.00 0.00 0.00 0.00 0.00 0.00 0.00 0.00 0.00
0.01 0.01 0.01 0.02 0.03 0.03 0.03 0.03 0.04 0.03 0.03 0.04 0.04 0.05 0.04 0.03 0.03 0.04 0.03 0.02 0.01 0.01 0.01 0.01 0.01 0.01 0.01 0.00 0.00 0.00 0.00 0.00 0.00 0.00 0.00 0.00 0.00 0.00
0.01 0.01 0.01 0.02 0.02 0.03 0.03 0.02 0.03 0.03 0.02 0.02 0.02 0.03 0.04 0.03 0.03 0.03 0.02 0.02 0.02 0.03 0.02 0.01 0.01 0.01 0.00 0.00 0.00 0.00 0.00 0.00 0.00 0.00 0.00 0.00 0.00 0.00
0.01 0.02 0.01 0.01 0.01 0.01 0.01 0.02 0.02 0.02 0.02 0.02 0.02 0.02 0.03 0.03 0.04 0.03 0.02 0.03 0.03 0.03 0.01 0.01 0.00 0.00 0.00 0.00 0.00 0.00 0.00 0.00 0.00 0.00 0.00 0.00 0.00 0.00
0.01 0.02 0.03 0.01 0.01 0.01 0.01 0.01 0.02 0.02 0.02 0.02 0.02 0.02 0.02 0.02 0.03 0.02 0.02 0.01 0.01 0.01 0.00 0.00 0.00 0.00 0.00 0.00 0.00 0.00 0.00 0.00 0.00 0.00 0.00 0.00 0.00 0.00
0.01 0.01 0.03 0.03 0.02 0.02 0.02 0.02 0.02 0.02 0.02 0.02 0.03 0.03 0.03 0.02 0.01 0.01 0.01 0.01 0.00 0.00 0.00 0.00 0.00 0.00 0.00 0.00 0.00 0.00 0.00 0.00 0.00 0.00 0.00 0.00 0.00 0.00
0.02 0.02 0.01 0.01 0.02 0.02 0.02 0.02 0.02 0.03 0.03 0.02 0.03 0.03 0.02 0.01 0.01 0.01 0.00 0.00 0.00 0.00 0.00 0.00 0.00 0.00 0.00 0.00 0.00 0.00 0.00 0.00 0.00 0.00 0.00 0.00 0.00 0.00
0.01 0.02 0.03 0.02 0.01 0.01 0.01 0.02 0.01 0.01 0.02 0.03 0.02 0.02 0.02 0.01 0.01 0.00 0.00 0.00 0.00 0.00 0.00 0.00 0.00 0.00 0.00 0.00 0.00 0.00 0.00 0.00 0.00 0.00 0.00 0.00 0.00 0.00
0.01 0.01 0.02 0.01 0.01 0.01 0.02 0.02 0.01 0.01 0.01 0.01 0.01 0.01 0.01 0.01 0.00 0.00 0.00 0.00 0.00 0.00 0.00 0.00 0.00 0.00 0.00 0.00 0.00 0.00 0.00 0.00 0.00 0.00 0.00 0.00 0.00 0.00
0.00 0.01 0.01 0.02 0.02 0.02 0.01 0.01 0.01 0.01 0.01 0.01 0.01 0.01 0.01 0.00 0.00 0.00 0.00 0.00 0.00 0.00 0.00 0.00 0.00 0.00 0.00 0.00 0.00 0.00 0.00 0.00 0.00 0.00 0.00 0.00 0.00 0.00
0.00 0.00 0.00 0.01 0.01 0.00 0.01 0.02 0.02 0.02 0.01 0.01 0.01 0.01 0.01 0.01 0.00 0.00 0.00 0.00 0.00 0.00 0.00 0.00 0.00 0.00 0.00 0.00 0.00 0.00 0.00 0.00 0.00 0.00 0.00 0.00 0.00 0.00
MSLP
1019.25 1019.50 1019.71 1019.89 1020.05 1020.20 1020.36 1020.55 1020.76 1021.00 1021.25 1021.49 1021.67 1021.77 1021.76 1021.63 1021.36 1020.99 1020.52 1020.00 1019.47 1018.96 1018.51 1018.15 1017.90 1017.77 1017.77 1017.89 1018.15 1018.53 1019.03 1019.63 1020.30 1021.02 1021.75 1022.46 1023.11 1023.68
1019.51 1019.68 1019.80 1019.89 1019.95 1020.01 1020.10 1020.24 1020.44 1020.70 1021.00 1021.31 1021.60 1021.82 1021.94 1021.93 1021.80 1021.55 1021.20 1020.79 1020.37 1019.97 1019.63 1019.37 1019.21 1019.16 1019.21 1019.36 1019.62 1019.96 1020.38 1020.86 1021.40 1021.97 1022.55 1023.11 1023.63 1024.07
1019.73 1019.83 1019.86 1019.86 1019.84 1019.83 1019.87 1019.98 1020.17 1020.44 1020.78 1021.16 1021.53 1021.85 1022.08 1022.20 1022.18 1022.05 1021.83 1021.54 1021.23 1020.95 1020.71 1020.56 1020.48 1020.50 1020.59 1020.76 1021.00 1021.28 1021.62 1021.99 1022.40 1022.83 1023.26 1023.68 1024.06 1024.40
1019.89 1019.92 1019.90 1019.84 1019.76 1019.70 1019.70 1019.78 1019.95 1020.23 1020.60 1021.02 1021.45 1021.84 1022.15 1022.36 1022.44 1022.42 1022.30 1022.12 1021.93 1021.75 1021.62 1021.55 1021.55 1021.62 1021.75 1021.92 1022.13 1022.36 1022.61 1022.88 1023.17 1023.47 1023.78 1024.08 1024.36 1024.60
1020.00 1019.99 1019.93 1019.83 1019.72 1019.63 1019.60 1019.65 1019.81 1020.08 1020.44 1020.87 1021.32 1021.74 1022.10 1022.37 1022.53 1022.59 1022.57 1022.49 1022.39 1022.30 1022.25 1022.26 1022.31 1022.42 1022.56 1022.72 1022.90 1023.07 1023.26 1023.45 1023.64 1023.85 1024.06 1024.28 1024.48 1024.65
1020.08 1020.04 1019.96 1019.84 1019.72 1019.62 1019.57 1019.60 1019.74 1019.97 1020.31 1020.71 1021.14 1021.57 1021.94 1022.24 1022.45 1022.57 1022.61 1022.61 1022.59 1022.57 1022.59 1022.64 1022.72 1022.84 1022.98 1023.12 1023.26 1023.39 1023.52 1023.64 1023.78 1023.92 1024.08 1024.24 1024.40 1024.53
1020.12 1020.07 1019.99 1019.88 1019.76 1019.65 1019.59 1019.60 1019.70 1019.89 1020.18 1020.53 1020.92 1021.32 1021.68 1021.99 1022.22 1022.38 1022.48 1022.53 1022.56 1022.60 1022.65 1022.72 1022.81 1022.92 1023.04 1023.15 1023.24 1023.34 1023.42 1023.51 1023.60 1023.72 1023.85 1023.98 1024.12 1024.23
1020.16 1020.10 1020.02 1019.92 1019.81 1019.71 1019.64 1019.62 1019.68 1019.83 1020.05 1020.34 1020.68 1021.03 1021.37 1021.67 1021.91 1022.10 1022.23 1022.32 1022.39 1022.45 1022.51 1022.58 1022.65 1022.73 1022.81 1022.88 1022.94 1022.99 1023.04 1023.10 1023.18 1023.28 1023.40 1023.54 1023.67 1023.77
1020.18 1020.12 1020.05 1019.96 1019.86 1019.76 1019.68 1019.64 1019.67 1019.76 1019.93 1020.16 1020.44 1020.75 1021.06 1021.35 1021.59 1021.80 1021.95 1022.06 1022.15 1022.21 1022.26 1022.31 1022.35 1022.38 1022.41 1022.43 1022.44 1022.46 1022.49 1022.53 1022.60 1022.70 1022.82 1022.95 1023.08 1023.17
1020.19 1020.12 1020.05 1019.97 1019.88 1019.78 1019.70 1019.65 1019.64 1019.70 1019.82 1020.01 1020.25 1020.52 1020.80 1021.08 1021.33 1021.53 1021.70 1021.82 1021.91 1021.96 1021.99 1022.00 1021.99 1021.97 1021.95 1021.92 1021.89 1021.87 1021.87 1021.90 1021.96 1022.05 1022.17 1022.29 1022.40 1022.47
1020.20 1020.12 1020.04 1019.96 1019.87 1019.78 1019.70 1019.64 1019.62 1019.66 1019.75 1019.91 1020.12 1020.36 1020.63 1020.89 1021.14 1021.34 1021.51 1021.63 1021.70 1021.74 1021.73 1021.70 1021.65 1021.58 1021.50 1021.42 1021.36 1021.31 1021.28 1021.30 1021.34 1021.41 1021.50 1021.60 1021.67 1021.71
1020.23 1020.13 1020.04 1019.95 1019.86 1019.78 1019.70 1019.64 1019.62 1019.65 1019.73 1019.87 1020.06 1020.29 1020.54 1020.79 1021.02 1021.22 1021.37 1021.48 1021.54 1021.54 1021.51 1021.44 1021.35 1021.24 1021.12 1021.01 1020.91 1020.83 1020.78 1020.77 1020.78 1020.82 1020.87 1020.92 1020.94 1020.92
1020.29 1020.16 1020.06 1019.96 1019.87 1019.79 1019.72 1019.67 1019.66 1019.69 1019.76 1019.89 1020.07 1020.28 1020.50 1020.73 1020.94 1021.12 1021.25 1021.33 1021.36 1021.34 1021.28 1021.19 1021.07 1020.94 1020.80 1020.67 1020.55 1020.45 1020.38 1020.33 1020.31 1020.30 1020.29 1020.27 1020.22 1020.13
1020.40 1020.25 1020.12 1020.02 1019.93 1019.85 1019.79 1019.75 1019.74 1019.77 1019.85 1019.97 1020.12 1020.30 1020.49 1020.68 1020.85 1020.99 1021.08 1021.13 1021.13 1021.09 1021.02 1020.91 1020.79 1020.66 1020.52 1020.39 1020.26 1020.15 1020.06 1019.98 1019.90 1019.83 1019.75 1019.65 1019.52 1019.35
1020.55 1020.38 1020.25 1020.13 1020.03 1019.96 1019.91 1019.87 1019.87 1019.90 1019.97 1020.06 1020.18 1020.32 1020.46 1020.59 1020.70 1020.79 1020.83 1020.84 1020.82 1020.76 1020.69 1020.59 1020.48 1020.36 1020.24 1020.12 1020.01 1019.89 1019.78 1019.66 1019.53 1019.39 1019.24 1019.05 1018.83 1018.58
1020.73 1020.56 1020.41 1020.28 1020.18 1020.11 1020.05 1020.02 1020.02 1020.04 1020.08 1020.15 1020.22 1020.30 1020.37 1020.43 1020.47 1020.49 1020.49 1020.46 1020.41 1020.35 1020.27 1020.20 1020.11 1020.03 1019.94 1019.85 1019.74 1019.63 1019.49 1019.33 1019.15 1018.95 1018.71 1018.44 1018.14 1017.82
1020.91 1020.73 1020.57 1020.44 1020.34 1020.25 1020.20 1020.16 1020.15 1020.15 1020.16 1020.18 1020.20 1020.21 1020.21 1020.19 1020.16 1020.11 1020.05 1019.99 1019.92 1019.86 1019.80 1019.75 1019.71 1019.66 1019.61 1019.54 1019.45 1019.32 1019.16 1018.97 1018.73 1018.46 1018.15 1017.81 1017.44 1017.06
1021.03 1020.85 1020.69 1020.55 1020.44 1020.35 1020.28 1020.23 1020.20 1020.18 1020.15 1020.13 1020.09 1020.04 1019.97 1019.88 1019.78 1019.68 1019.58 1019.48 1019.41 1019.35 1019.31 1019.29 1019.28 1019.27 1019.25 1019.19 1019.10 1018.96 1018.77 1018.53 1018.24 1017.90 1017.53 1017.13 1016.72 1016.30
1021.04 1020.86 1020.70 1020.55 1020.43 1020.33 1020.25 1020.19 1020.14 1020.09 1020.04 1019.98 1019.90 1019.79 1019.67 1019.53 1019.38 1019.24 1019.11 1019.00 1018.92 1018.87 1018.86 1018.86 1018.87 1018.88 1018.86 1018.81 1018.70 1018.53 1018.30 1018.01 1017.67 1017.28 1016.86 1016.42 1015.98 1015.53
1020.91 1020.73 1020.56 1020.41 1020.28 1020.17 1020.08 1020.01 1019.94 1019.88 1019.81 1019.72 1019.61 1019.48 1019.33 1019.16 1018.99 1018.83 1018.69 1018.58 1018.51 1018.47 1018.46 1018.48 1018.50 1018.50 1018.47 1018.40 1018.26 1018.05 1017.77 1017.43 1017.04 1016.60 1016.14 1015.67 1015.20 1014.75
1020.62 1020.44 1020.27 1020.10 1019.96 1019.84 1019.74 1019.66 1019.59 1019.53 1019.45 1019.36 1019.25 1019.11 1018.96 1018.79 1018.62 1018.47 1018.34 1018.24 1018.17 1018.15 1018.14 1018.15 1018.16 1018.14 1018.08 1017.96 1017.78 1017.52 1017.19 1016.80 1016.36 1015.88 1015.39 1014.90 1014.42 1013.97
1020.18 1020.00 1019.81 1019.64 1019.49 1019.36 1019.26 1019.18 1019.11 1019.05 1018.98 1018.91 1018.81 1018.69 1018.56 1018.42 1018.28 1018.15 1018.04 1017.95 1017.90 1017.87 1017.86 1017.85 1017.83 1017.78 1017.67 1017.50 1017.26 1016.94 1016.56 1016.12 1015.64 1015.14 1014.63 1014.12 1013.63 1013.17
1019.62 1019.43 1019.24 1019.06 1018.90 1018.76 1018.66 1018.58 1018.52 1018.47 1018.43 1018.37 1018.31 1018.23 1018.13 1018.03 1017.92 1017.82 1017.74 1017.68 1017.63 1017.60 1017.57 1017.54 1017.47 1017.37 1017.21 1016.99 1016.69 1016.33 1015.90 1015.43 1014.92 1014.40 1013.87 1013.35 1012.85 1012.38
Thickness
5618 5620 5622 5623 5625 5627 5628 5629 5629 5630 5632 5632 5632 5634 5635 5636 5637 5639 5640 5641 5642 5643 5643 5642 5641 5640 5639 5638 5637 5635 5633 5631 5629 5627 5625 5622 5620 5616
5610 5612 5614 5616 5617 5619 5621 5622 5623 5624 5625 5625 5625 5626 5627 5628 5629 5631 5632 5633 5634 5635 5635 5634 5633 5632 5631 5629 5627 5626 5624 5622 5620 5618 5617 5614 5612 5608
5601 5603 5606 5608 5610 5611 5613 5615 5616 5617 5618 5617 5617 5618 5618 5620 5621 5622 5623 5624 5625 5625 5625 5625 5623 5623 5622 5620 5618 5617 5615 5613 5611 5610 5608 5606 5603 5601
5593 5595 5597 5600 5602 5604 5605 5607 5608 5610 5611 5611 5610 5610 5610 5611 5612 5613 5613 5614 5615 5615 5616 5615 5614 5613 5612 5611 5609 5608 5606 5605 5603 5602 5600 5598 5596 5593
5584 5586 5588 5590 5593 5595 5597 5599 5601 5602 5603 5604 5603 5602 5602 5603 5603 5603 5604 5604 5604 5605 5605 5604 5603 5603 5603 5601 5600 5600 5599 5598 5596 5594 5593 5591 5588 5586
5575 5577 5580 5582 5584 5587 5589 5591 5593 5594 5595 5596 5596 5595 5594 5594 5595 5595 5594 5594 5595 5595 5595 5594 5594 5594 5594 5593 5593 5592 5591 5590 5589 5587 5585 5584 5582 5579
5567 5569 5571 5574 5576 5578 5581 5583 5585 5587 5588 5589 5589 5588 5588 5588 5588 5588 5587 5586 5586 5586 5586 5587 5587 5587 5587 5587 5586 5586 5585 5584 5583 5581 5580 5578 5576 5574
5558 5561 5564 5566 5568 5571 5573 5575 5578 5580 5581 5582 5582 5582 5582 5582 5581 5581 5581 5580 5580 5579 5580 5580 5580 5581 5581 5581 5581 5581 5580 5579 5578 5576 5575 5573 5572 5570
5549 5552 5555 5558 5560 5563 5565 5568 5570 5572 5573 5575 5576 5577 5576 5576 5576 5575 5575 5575 5575 5574 5574 5575 5575 5576 5576 5577 5577 5576 5575 5574 5573 5572 5571 5570 5568 5566
5542 5544 5546 5549 5551 5554 5557 5559 5562 5564 5566 5567 5570 5571 5571 5571 5570 5570 5569 5568 5568 5568 5568 5570 5570 5571 5573 5573 5573 5573 5572 5571 5570 5569 5568 5567 5566 5565
5535 5537 5539 5541 5544 5546 5549 5551 5554 5556 5558 5560 5562 5563 5564 5565 5565 5564 5564 5565 5565 5565 5564 5566 5567 5567 5568 5569 5570 5569 5569 5569 5568 5567 5566 5566 5564 5563
5529 5530 5532 5534 5536 5539 5541 5544 5547 5548 5551 5553 5555 5557 5558 5559 5560 5561 5562 5562 5562 5563 5562 5562 5564 5564 5565 5566 5567 5567 5566 5567 5566 5566 5565 5565 5563 5561
5523 5525 5527 5529 5531 5533 5535 5537 5539 5542 5544 5547 5549 5551 5553 5555 5557 5558 5558 5559 5560 5562 5561 5560 5561 5561 5562 5563 5564 5564 5564 5565 5565 5565 5565 5564 5563 5560
5518 5520 5522 5524 5527 5528 5530 5532 5535 5537 5539 5542 5544 5546 5549 5551 5553 5555 5556 5557 5558 5560 5560 5559 5560 5560 5560 5561 5562 5563 5563 5563 5563 5564 5564 5564 5563 5561
5515 5516 5519 5521 5523 5525 5527 5529 5531 5533 5535 5538 5540 5542 5545 5548 5550 5552 5554 5555 5556 5557 5558 5558 5558 5558 5558 5560 5561 5561 5562 5563 5563 5563 5563 5563 5562 5561
5513 5515 5517 5519 5521 5523 5525 5526 5528 5530 5532 5535 5537 5539 5542 5545 5548 5550 5552 5553 5554 5556 5556 5557 5557 5557 5558 5558 5559 5560 5561 5562 5563 5563 5562 5562 5562 5561
5512 5514 5516 5518 5520 5521 5523 5525 5527 5529 5531 5533 5535 5538 5540 5543 5546 5548 5549 5551 5552 5554 5556 5556 5556 5556 5557 5557 5559 5561 5561 5562 5562 5562 5561 5562 5563 5562
5513 5514 5515 5517 5519 5521 5523 5525 5528 5529 5531 5532 5535 5537 5539 5542 5545 5547 5548 5550 5552 5554 5555 5555 5556 5556 5557 5558 5558 5560 5561 5562 5562 5561 5559 5560 5562 5563
5514 5515 5516 5518 5520 5522 5523 5525 5527 5529 5531 5533 5535 5537 5539 5542 5544 5547 5548 5550 5552 5553 5554 5554 5555 5556 5558 5560 5562 5559 5560 5561 5561 5561 5560 5559 5560 5561
5516 5517 5519 5520 5522 5523 5525 5527 5529 5531 5532 5534 5536 5538 5540 5542 5544 5547 5549 5550 5552 5553 5554 5555 5555 5555 5557 5558 5560 5560 5559 5559 5560 5560 5561 5559 5558 5558
5520 5521 5522 5523 5525 5526 5528 5529 5531 5533 5534 5536 5538 5539 5541 5543 5545 5548 5549 5549 5551 5553 5554 5556 5556 5555 5554 5554 5556 5559 5561 5560 5559 5558 5558 5557 5558 5558
5525 5525 5526 5527 5528 5530 5531 5532 5534 5535 5537 5539 5540 5542 5543 5545 5547 5549 5550 5552 5553 5554 5555 5556 5555 5554 5554 5555 5558 5559 5560 5561 5560 5558 5556 5554 5554 5555
5530 5531 5532 5532 5533 5534 5535 5537 5538 5539 5540 5541 5543 5545 5546 5547 5548 5550 5551 5552 5553 5554 5554 5555 5555 5555 5555 5556 5556 5557 5558 5558 5558 5558 5558 5556 5553 5551